| time (UTC) | temp C | wind direction | speed KPH | gust KPH | rain 1hr cm | rain 24hr cm | rain mn cm | humidity % | barometer mb |
| 20260504081528 | 2 | 304 | 45.1 | 77.2 | 0.03 | 2.31 | 0.33 | 94 | 982.9 |
| 20260504060107 | 3 | 262 | 24.1 | 45.1 | 0.05 | 2.21 | 0.23 | 97 | 978.3 |
| 20260504044544 | 3 | 256 | 19.3 | 35.4 | 0.08 | 2.13 | 0.15 | 97 | 976.3 |
| 20260504043052 | 3 | 257 | 17.7 | 29.0 | 0.10 | 2.11 | 0.15 | 97 | 975.7 |
| 20260504041538 | 3 | 271 | 17.7 | 32.2 | 0.08 | 2.08 | 0.10 | 97 | 974.9 |
| 20260504040035 | 3 | 264 | 11.3 | 24.1 | 0.08 | 2.06 | 0.08 | 97 | 974.3 |
| 20260504034536 | 3 | 305 | 14.5 | 19.3 | 0.10 | 2.06 | 0.08 | 97 | 973.8 |
| 20260504033030 | 3 | 344 | 4.8 | 9.7 | 0.08 | 2.03 | 0.05 | 97 | 973.5 |
| 20260504031528 | 3 | 56 | 8.0 | 17.7 | 0.08 | 2.01 | 0.03 | 97 | 973.5 |
| 20260504030026 | 3 | 68 | 16.1 | 35.4 | 0.05 | 1.98 | 1.98 | 97 | 973.6 |
| 20260504024524 | 3 | 78 | 22.5 | 41.8 | 0.05 | 1.96 | 1.96 | 97 | 974.1 |
| 20260504023020 | 3 | 108 | 24.1 | 37.0 | 0.05 | 1.93 | 1.93 | 97 | 974.9 |
| 20260504021518 | 3 | 100 | 32.2 | 41.8 | 0.03 | 1.93 | 1.93 | 97 | 976.0 |
| 20260504020015 | 3 | 95 | 29.0 | 41.8 | 0.03 | 1.93 | 1.93 | 96 | 976.6 |
| 20260504014510 | 4 | 107 | 29.0 | 41.8 | 0.00 | 1.91 | 1.91 | 96 | 977.8 |
| 20260504013006 | 5 | 85 | 35.4 | 46.7 | 0.03 | 1.91 | 1.91 | 96 | 978.2 |
| 20260504011503 | 5 | 118 | 29.0 | 48.3 | 0.05 | 1.91 | 1.91 | 97 | 978.9 |
| 20260504010100 | 5 | 112 | 35.4 | 48.3 | 0.08 | 1.91 | 1.91 | 97 | 979.7 |
| 20260504004557 | 5 | 83 | 29.0 | 53.1 | 0.15 | 1.91 | 1.91 | 97 | 980.4 |
| 20260504003054 | 5 | 67 | 33.8 | 57.9 | 0.15 | 1.88 | 1.88 | 97 | 980.8 |
| 20260504001553 | 5 | 82 | 30.6 | 53.1 | 0.18 | 1.83 | 1.83 | 97 | 981.7 |
| 20260504000052 | 5 | 76 | 38.6 | 57.9 | 0.18 | 1.83 | 1.83 | 97 | 982.2 |
| 20260503234546 | 5 | 101 | 32.2 | 62.8 | 0.23 | 1.75 | 1.75 | 97 | 983.2 |
| 20260503233043 | 5 | 81 | 33.8 | 51.5 | 0.41 | 1.73 | 1.73 | 97 | 983.9 |
| 20260503231540 | 4 | 65 | 33.8 | 62.8 | 0.51 | 1.65 | 1.65 | 97 | 984.7 |
| 20260503230038 | 3 | 54 | 35.4 | 56.3 | 0.61 | 1.65 | 1.65 | 96 | 985.6 |
| 20260503224536 | 3 | 42 | 38.6 | 57.9 | 0.61 | 1.52 | 1.52 | 96 | 986.1 |
| 20260503223033 | 3 | 55 | 29.0 | 57.9 | 0.56 | 1.32 | 1.32 | 96 | 987.5 |
| 20260503221532 | 3 | 69 | 32.2 | 59.5 | 0.53 | 1.17 | 1.17 | 96 | 988.2 |
| 20260503220026 | 3 | 54 | 32.2 | 53.1 | 0.56 | 1.02 | 1.02 | 96 | 989.4 |
| 20260503214537 | 3 | 66 | 27.4 | 49.9 | 0.53 | 0.89 | 0.89 | 95 | 990.9 |
| 20260503213019 | 3 | 79 | 24.1 | 43.5 | 0.43 | 0.76 | 0.76 | 95 | 991.6 |
| 20260503211515 | 3 | 96 | 25.7 | 48.3 | 0.33 | 0.61 | 0.61 | 95 | 992.7 |
| 20260503210013 | 4 | 81 | 29.0 | 49.9 | 0.25 | 0.46 | 0.46 | 95 | 993.4 |
| 20260503204512 | 4 | 59 | 35.4 | 57.9 | 0.20 | 0.36 | 0.36 | 94 | 993.3 |
| 20260503203010 | 5 | 85 | 37.0 | 57.9 | 0.20 | 0.33 | 0.33 | 94 | 994.0 |
| 20260503201507 | 5 | 88 | 33.8 | 48.3 | 0.20 | 0.28 | 0.28 | 94 | 994.6 |
| 20260503200004 | 5 | 91 | 30.6 | 48.3 | 0.15 | 0.20 | 0.20 | 94 | 995.7 |
| 20260503194502 | 6 | 68 | 27.4 | 48.3 | 0.15 | 0.15 | 0.15 | 93 | 995.7 |
| 20260503193104 | 6 | 87 | 30.6 | 43.5 | 0.13 | 0.13 | 0.13 | 92 | 997.0 |
| 20260503191605 | 6 | 68 | 24.1 | 40.2 | 0.08 | 0.08 | 0.08 | 91 | 997.2 |
| 20260503190055 | 6 | 87 | 27.4 | 35.4 | 0.05 | 0.05 | 0.05 | 88 | 998.5 |
| 20260503184600 | 6 | 46 | 20.9 | 48.3 | 0.00 | 0.00 | 0.00 | 85 | 998.7 |
| 20260503183048 | 6 | 27 | 30.6 | 45.1 | 0.00 | 0.00 | 0.00 | 84 | 999.0 |
| 20260503181607 | 6 | 67 | 24.1 | 49.9 | 0.00 | 0.00 | 0.00 | 85 | 1000.5 |
| 20260503180050 | 5 | 42 | 24.1 | 43.5 | 0.00 | 0.00 | 0.00 | 88 | 1001.5 |
| 20260503174545 | 5 | 57 | 33.8 | 43.5 | 0.00 | 0.00 | 0.00 | 87 | 1001.8 |
| 20260503173046 | 5 | 44 | 35.4 | 45.1 | 0.00 | 0.00 | 0.00 | 87 | 1002.2 |
| 20260503171530 | 5 | 50 | 27.4 | 40.2 | 0.00 | 0.00 | 0.00 | 88 | 1004.2 |